Flag for USA

Past Weather in Montgomery, Alabama, USA — Yesterday and Last 2 Weeks

Now
73 °F

Sunny.


Feels Like: 72 °F
Forecast: 93 / 70 °F
Wind: No wind

Location: Maxwell Air Force Base / Montgomery

Current Time: Jul 12, 2020 at 8:07:25 am

Latest Report: Jul 12, 2020 at 6:56 am


Visibility: 10 mi

Pressure: 29.93 "Hg

Humidity: 87%

Dew Point: 69 °F

Location of MontgomeryLocation

Past Weather in Montgomery — Graph

°F

Montgomery Temperature Yesterday

Maximum temperature yesterday: 93 °F (at 3:56 pm)
Minimum temperature yesterday: 73 °F (at 11:56 pm)
Average temperature yesterday: 83 °F

High & Low Weather Summary for the Past Weeks

 TemperatureHumidityPressure
High93 °F (Jul 11, 3:56 pm)94% (Jul 1, 5:59 am)30.16 "Hg (Jul 1, 5:59 am)
Low70 °F (Jul 12, 4:56 am)39% (Jul 11, 3:56 pm)29.84 "Hg (Jul 4, 5:56 pm)
Average79 °F77%29.96 "Hg
* Reported Jun 27 6:56 am — Jul 12 6:56 am, Montgomery. Weather by CustomWeather, © 2020

Note: Actual official high and low records may vary slightly from our data, if they occured in-between our weather recording intervals... More about our weather records

Montgomery Weather History for the Previous 24 Hours

Scroll right to see more
 ConditionsComfort  
Time TempWeatherWind HumidityBarometerVisibility
6:56 am
Sun, Jul 12
73 °FSunny.No wind87%29.93 "Hg10 mi
5:56 am70 °FSunny.No wind89%29.92 "Hg8 mi
4:56 am70 °FClear.No wind89%29.91 "Hg9 mi
3:56 am72 °FClear.No wind86%29.92 "Hg10 mi
2:56 am71 °FClear.No wind88%29.90 "Hg10 mi
1:56 am72 °FClear.No wind88%29.89 "Hg10 mi
12:56 am72 °FClear.No wind88%29.91 "Hg10 mi
11:56 pm
Sat, Jul 11
73 °FClear.No wind87%29.92 "Hg10 mi
10:56 pm74 °FClear.No wind85%29.94 "Hg10 mi
9:56 pm75 °FClear.No wind78%29.94 "Hg10 mi
8:56 pm74 °FClear.No wind77%29.92 "Hg10 mi
7:56 pm79 °FClear.No wind66%29.91 "Hg10 mi
6:56 pm84 °FSunny.3 mph50%29.91 "Hg10 mi
5:56 pm87 °FSunny.7 mph43%29.90 "Hg10 mi
4:56 pm87 °FSunny.8 mph39%29.90 "Hg10 mi
3:56 pm93 °FSunny.9 mph39%29.91 "Hg10 mi
2:56 pm93 °FSunny.9 mph42%29.91 "Hg10 mi
1:56 pm92 °FPassing clouds.8 mph46%29.93 "Hg10 mi
12:56 pm91 °FPassing clouds.13 mph52%29.95 "Hg10 mi
12:38 pm90 °FScattered clouds.8 mph52%29.95 "Hg10 mi
12:33 pm90 °FScattered clouds.10 mph55%29.95 "Hg10 mi
11:56 am88 °FSunny.8 mph54%29.97 "Hg10 mi
10:56 am87 °FSunny.12 mph53%29.97 "Hg10 mi
10:03 am86 °FPassing clouds.9 mph59%29.99 "Hg10 mi
8:56 am85 °FSunny.6 mph63%29.99 "Hg10 mi
Weather by CustomWeather, © 2020

See weather overview